Vorticity
20 20 19 18 17 16 16 17 18 18 19 18 19 22 23 23 20 23 24 16 13 17 20 19 14 12 14 12 10 8 6 6 7 10 13 11 10 11 13 13 10 11 10 11 13 9 9 12 5 8 22 27 31 40 41 47 57 37 -2 -6 13 5 -8
20 19 20 18 18 18 16 16 16 16 17 17 17 20 23 24 22 24 27 17 8 10 17 21 17 12 14 15 13 10 8 8 9 11 12 10 10 10 12 13 10 11 11 10 13 11 8 11 9 5 16 26 26 34 44 41 51 56 20 -1 14 3 -15
18 18 18 17 17 18 16 16 15 14 15 15 16 19 21 25 24 26 30 20 8 6 11 19 20 14 14 17 16 13 11 10 10 12 12 9 10 10 12 13 11 11 12 10 10 12 9 9 10 7 9 23 25 25 42 44 41 56 46 15 2 -8 -7
18 18 17 17 17 17 16 16 15 14 15 13 15 17 21 25 25 28 33 23 9 7 7 11 17 15 15 18 17 14 13 13 13 13 12 10 8 10 11 12 12 11 11 11 10 10 11 9 9 10 6 17 26 21 31 48 43 43 53 44 10 -19 -8
17 17 17 16 16 17 16 16 15 14 13 12 14 16 19 25 28 32 35 22 9 9 7 5 9 13 17 19 17 16 14 14 14 13 11 10 8 8 11 12 12 12 11 11 10 9 11 10 8 10 8 10 24 23 21 38 50 42 43 55 36 -4 -11
15 14 15 15 16 17 17 16 14 13 13 14 15 14 15 23 33 39 36 21 10 10 10 7 6 9 17 20 18 17 14 11 13 13 10 9 8 7 11 13 12 13 12 10 10 9 9 12 9 8 9 8 16 24 20 24 45 50 42 49 49 22 -1
16 15 15 16 16 17 16 16 13 12 15 17 14 10 12 27 44 47 33 16 11 12 13 11 6 7 15 19 19 17 13 10 11 12 11 9 9 8 9 13 12 12 13 10 9 10 8 10 11 7 8 9 11 20 22 19 31 49 49 45 47 40 22
16 17 16 16 18 17 16 15 13 13 17 18 12 6 13 38 53 44 26 15 12 12 11 6 2 6 14 17 19 17 12 10 9 10 12 10 8 8 9 13 13 11 13 11 8 10 9 8 11 9 8 10 11 15 21 19 21 37 49 47 42 43 39
15 17 17 17 17 16 17 16 12 15 18 15 10 2 12 45 49 26 22 25 14 8 9 6 5 9 12 13 17 17 12 11 10 8 12 11 6 8 10 11 14 12 11 12 9 9 10 8 10 10 8 9 10 13 18 20 18 25 40 49 44 39 42
15 18 17 18 18 15 18 16 11 17 18 10 9 2 11 46 43 13 18 28 18 18 17 6 7 14 14 13 14 15 13 11 12 10 11 11 6 7 11 11 13 13 11 11 10 9 9 9 9 10 8 8 10 11 15 19 18 19 29 43 48 41 39
15 18 17 17 19 16 17 17 12 19 17 4 9 8 12 42 40 11 17 25 21 31 22 -1 5 19 18 14 12 13 14 11 12 13 11 11 9 7 11 12 12 13 12 11 10 9 9 8 9 10 8 8 10 10 13 17 17 17 21 31 44 47 42
14 17 18 18 19 17 17 16 13 19 16 2 8 12 13 36 34 9 16 26 17 20 10 -3 12 20 13 13 13 12 15 11 11 14 12 12 10 8 9 11 12 13 13 12 10 9 10 9 8 10 9 8 10 10 11 14 17 18 17 22 33 44 49
16 18 19 17 19 19 16 14 14 20 16 1 6 15 13 29 34 10 10 24 19 14 9 5 16 18 10 13 16 13 13 11 11 14 13 11 9 8 9 12 13 14 13 12 10 9 9 9 8 9 9 8 9 10 11 12 16 18 16 18 22 32 48
18 19 19 16 19 20 15 14 17 21 15 -1 7 21 13 20 35 19 5 16 19 15 15 14 15 16 13 15 16 15 13 10 11 14 12 10 9 8 10 12 14 14 13 12 11 10 9 8 9 9 9 9 9 9 11 11 13 17 17 18 18 21 36
19 19 18 16 19 18 13 16 19 18 11 -1 9 28 17 12 32 27 6 9 16 10 12 18 16 10 12 16 16 15 12 8 10 12 10 10 9 8 9 13 14 12 11 11 10 9 8 7 10 10 8 10 10 7 9 11 11 15 17 18 19 17 26
19 19 19 16 19 16 11 17 19 12 6 3 15 31 20 9 28 33 12 6 15 13 9 14 15 8 10 16 15 13 12 8 9 12 10 10 10 8 10 14 14 11 10 12 10 8 8 8 9 12 9 9 9 8 8 10 11 13 15 18 20 18 21
19 20 21 18 17 13 10 17 16 6 4 12 24 31 21 11 22 34 23 8 14 21 14 12 16 13 11 16 13 10 12 10 10 11 12 12 11 9 13 16 13 11 11 12 11 8 8 8 9 12 12 9 8 8 8 8 10 12 13 15 18 19 19
20 19 21 19 14 12 15 18 11 3 10 25 31 28 21 14 17 29 28 11 11 24 21 13 16 17 15 15 11 8 12 12 10 12 13 13 11 10 16 16 11 11 12 11 11 8 7 10 11 11 12 10 8 8 8 8 8 10 12 13 14 16 19
21 18 20 16 11 14 18 14 8 12 25 33 31 24 18 14 17 27 27 14 14 25 20 11 16 19 17 15 10 10 14 12 9 13 14 12 10 12 16 15 10 11 12 10 10 10 8 10 11 11 11 10 9 9 7 7 8 8 10 12 13 14 17
22 19 17 12 12 18 15 10 14 26 33 31 26 21 16 16 20 22 20 17 22 25 16 12 17 18 14 14 13 13 15 11 10 14 14 11 13 15 15 13 10 10 12 11 10 9 9 9 10 12 13 12 11 11 8 6 7 7 8 10 12 15 17
22 19 14 12 16 17 11 13 25 29 28 29 26 18 15 19 20 14 13 20 24 21 16 14 16 14 12 13 14 13 14 14 13 13 12 11 14 14 12 11 11 11 11 11 10 8 9 10 10 12 14 14 12 11 8 5 5 6 8 10 10 12 16
21 16 11 14 19 14 10 21 29 19 14 19 19 13 15 20 18 11 15 25 22 15 15 12 10 12 13 11 13 14 14 15 14 12 11 12 12 12 12 11 12 12 12 11 10 9 9 10 12 12 13 14 13 11 8 5 5 6 7 9 11 11 13
20 13 11 17 17 11 14 26 24 9 5 9 11 14 19 20 15 12 20 27 21 14 14 12 9 12 13 12 14 15 14 14 13 11 10 12 12 12 12 12 12 13 13 11 9 10 10 9 11 12 13 14 14 12 10 7 5 7 7 7 8 10 11
16 9 13 19 14 11 21 27 17 6 4 9 15 22 25 19 14 13 16 17 17 17 17 15 11 12 14 14 15 15 14 13 12 11 10 12 13 13 12 13 14 13 12 11 10 10 10 10 10 12 14 15 13 13 13 11 6 5 6 6 6 8 9
12 10 17 18 12 17 25 20 11 5 4 13 26 32 28 17 10 11 13 13 15 19 18 14 14 15 15 15 14 12 12 11 10 10 11 12 14 14 13 13 14 12 11 10 10 9 9 10 11 11 12 14 15 16 16 13 8 5 4 6 6 6 7
10 13 19 15 12 22 24 13 6 5 6 20 38 36 21 11 9 15 22 20 16 14 14 14 17 18 14 13 12 11 11 12 10 10 13 14 14 14 14 14 14 12 10 9 9 9 10 10 10 11 11 13 17 19 18 14 9 5 4 5 6 5 5
11 16 18 13 15 23 20 8 6 6 6 20 38 32 14 9 14 21 22 16 8 6 9 15 19 17 13 12 12 11 10 10 10 10 12 14 15 14 15 15 13 11 10 9 9 10 10 10 10 10 12 15 17 19 20 17 12 7 4 3 5 5 4
13 17 14 11 17 23 15 6 6 7 4 12 26 27 18 14 17 18 14 10 8 8 10 15 17 15 13 12 11 11 11 10 11 12 13 14 15 16 15 13 10 9 8 9 10 10 9 10 11 12 14 16 18 18 20 20 15 9 5 2 2 4 4
14 16 12 14 21 22 13 8 11 11 5 4 11 18 19 15 14 14 13 12 13 13 15 17 17 13 11 11 10 11 12 12 13 13 14 15 17 16 13 10 8 9 9 8 8 9 10 10 12 15 17 17 18 18 20 21 19 14 8 3 1 2 3
15 14 13 18 26 21 10 10 16 15 8 4 7 12 15 14 14 16 18 17 16 17 17 16 14 12 10 10 10 10 12 13 14 14 15 16 16 14 10 8 8 8 8 8 9 11 13 13 13 15 17 18 18 18 19 21 21 18 12 7 2 1 2
15 14 16 23 25 16 7 9 15 15 10 7 7 11 16 18 16 15 16 15 15 15 14 12 12 12 11 11 12 13 13 14 14 15 14 13 11 9 8 8 9 9 8 9 11 12 13 13 13 14 16 17 18 19 20 21 22 21 16 11 6 3 2
14 15 20 25 21 11 8 11 13 14 12 9 9 12 17 20 19 15 14 15 14 13 12 12 11 11 12 13 13 14 14 13 13 13 13 11 9 9 10 10 10 10 9 9 11 13 12 11 12 13 14 17 19 19 19 20 22 23 20 15 11 7 4
13 16 23 24 17 10 10 11 10 10 13 13 11 13 15 17 17 15 14 15 14 12 11 11 11 11 12 13 13 12 13 14 14 13 13 12 11 10 11 11 10 8 9 10 12 13 12 11 12 13 14 16 18 18 18 18 19 21 22 19 15 11 8
13 19 24 22 14 9 8 8 7 9 15 17 15 13 16 18 17 15 14 14 14 12 11 11 11 12 12 12 12 13 13 13 14 13 11 11 11 10 9 9 9 8 10 13 14 13 11 10 12 13 13 14 16 16 16 16 17 18 20 19 17 14 11
14 20 24 19 11 7 6 6 5 7 13 19 19 18 19 20 17 14 13 13 12 12 12 11 11 11 12 12 12 12 13 13 13 13 12 11 11 11 9 8 8 10 13 14 13 12 12 13 12 12 11 13 14 14 14 14 16 17 17 17 16 15 13
15 19 22 17 9 5 6 7 8 10 14 20 22 19 17 16 13 11 12 12 12 12 12 11 11 11 11 12 12 12 13 14 13 12 13 12 10 9 8 8 9 11 12 13 13 13 14 13 12 12 12 12 12 12 12 14 15 16 16 16 15 15 14
Height
5349 5344 5340 5336 5333 5329 5326 5324 5322 5320 5318 5316 5315 5315 5314 5314 5313 5315 5317 5318 5320 5323 5326 5328 5331 5334 5336 5338 5341 5343 5346 5348 5349 5351 5353 5355 5356 5357 5358 5358 5359 5362 5362 5361 5363 5364 5365 5366 5368 5369 5369 5370 5371 5373 5376 5382 5388 5396 5405 5414 5424 5432 5441
5335 5332 5328 5324 5321 5318 5315 5313 5310 5307 5306 5304 5303 5302 5302 5301 5301 5302 5304 5306 5309 5312 5315 5317 5320 5323 5325 5327 5330 5333 5336 5338 5340 5342 5344 5346 5348 5349 5350 5351 5352 5354 5355 5355 5355 5356 5358 5359 5360 5361 5362 5364 5365 5366 5369 5373 5379 5386 5394 5404 5414 5423 5432
5320 5318 5315 5312 5309 5307 5304 5301 5299 5296 5294 5293 5292 5290 5290 5289 5289 5290 5292 5294 5298 5301 5305 5307 5310 5312 5315 5317 5320 5323 5326 5329 5331 5333 5336 5338 5340 5341 5342 5343 5345 5346 5348 5348 5348 5349 5351 5352 5353 5354 5356 5357 5358 5360 5362 5365 5370 5376 5383 5393 5403 5413 5422
5307 5304 5302 5299 5297 5295 5292 5290 5287 5285 5283 5282 5280 5279 5278 5277 5277 5278 5280 5282 5286 5290 5294 5298 5301 5303 5305 5307 5310 5314 5316 5319 5322 5324 5327 5329 5331 5333 5334 5336 5337 5339 5340 5342 5342 5342 5344 5346 5346 5347 5349 5350 5352 5354 5355 5357 5362 5367 5374 5382 5393 5403 5412
5295 5291 5289 5287 5285 5283 5281 5279 5276 5274 5272 5271 5269 5268 5266 5266 5265 5266 5269 5271 5275 5280 5284 5288 5292 5294 5295 5298 5301 5305 5307 5310 5313 5315 5318 5321 5323 5325 5326 5328 5330 5332 5333 5335 5336 5336 5337 5339 5340 5341 5342 5344 5345 5347 5349 5351 5354 5358 5364 5372 5382 5392 5401
5284 5280 5277 5275 5273 5271 5269 5267 5265 5264 5262 5260 5259 5257 5255 5254 5254 5255 5257 5261 5265 5270 5274 5279 5283 5285 5287 5289 5292 5296 5299 5301 5304 5307 5310 5313 5315 5317 5319 5321 5323 5324 5326 5328 5330 5330 5331 5333 5334 5335 5336 5337 5339 5340 5342 5344 5347 5350 5356 5363 5371 5381 5390
5272 5268 5265 5263 5262 5259 5257 5256 5255 5254 5252 5250 5248 5247 5245 5243 5242 5244 5247 5250 5255 5260 5265 5269 5273 5276 5278 5281 5284 5287 5290 5293 5295 5299 5302 5305 5308 5309 5311 5313 5315 5317 5319 5321 5323 5324 5325 5326 5328 5329 5330 5331 5333 5334 5336 5339 5341 5344 5349 5355 5362 5371 5380
5260 5257 5254 5252 5250 5248 5246 5245 5244 5243 5242 5240 5238 5237 5235 5233 5232 5234 5237 5241 5246 5252 5256 5260 5264 5268 5270 5273 5276 5279 5282 5284 5287 5290 5294 5297 5300 5302 5304 5306 5308 5310 5312 5314 5317 5318 5319 5320 5322 5324 5325 5326 5327 5328 5330 5333 5336 5338 5341 5346 5353 5360 5368
5247 5245 5243 5241 5239 5237 5236 5235 5234 5234 5232 5230 5229 5228 5226 5224 5224 5226 5229 5233 5238 5243 5248 5252 5256 5259 5262 5265 5268 5271 5273 5276 5279 5283 5286 5289 5291 5294 5297 5299 5301 5303 5305 5307 5310 5312 5313 5315 5316 5318 5319 5321 5322 5323 5325 5327 5330 5332 5335 5339 5344 5350 5357
5236 5233 5231 5230 5228 5226 5225 5225 5225 5224 5222 5221 5220 5219 5218 5216 5217 5219 5222 5226 5230 5235 5239 5243 5246 5250 5253 5256 5259 5263 5266 5269 5272 5275 5278 5281 5283 5286 5289 5292 5294 5296 5298 5300 5303 5305 5307 5309 5310 5312 5314 5315 5316 5318 5319 5321 5324 5326 5329 5333 5337 5342 5348
5224 5222 5220 5218 5217 5216 5215 5215 5216 5215 5213 5212 5211 5210 5210 5209 5210 5213 5216 5219 5223 5226 5230 5234 5237 5241 5244 5248 5251 5255 5258 5261 5264 5267 5270 5273 5276 5279 5282 5285 5287 5289 5291 5294 5296 5299 5301 5303 5304 5306 5309 5310 5312 5313 5314 5315 5318 5320 5324 5327 5331 5334 5339
5213 5211 5209 5207 5207 5206 5206 5206 5206 5205 5204 5203 5202 5202 5202 5202 5204 5206 5209 5212 5215 5218 5221 5225 5229 5232 5236 5239 5243 5246 5250 5253 5256 5260 5263 5266 5269 5272 5275 5278 5280 5283 5285 5287 5290 5292 5295 5297 5298 5301 5303 5305 5307 5307 5308 5310 5312 5315 5318 5321 5324 5327 5331
5202 5201 5199 5197 5197 5196 5196 5197 5197 5196 5195 5195 5194 5193 5193 5195 5197 5199 5202 5205 5208 5211 5214 5218 5222 5225 5228 5232 5235 5238 5242 5246 5249 5252 5255 5258 5262 5265 5268 5271 5273 5276 5279 5281 5283 5286 5289 5290 5292 5295 5298 5300 5301 5302 5304 5305 5307 5309 5312 5314 5317 5320 5324
5192 5191 5189 5187 5187 5187 5187 5188 5188 5187 5186 5186 5185 5184 5184 5187 5190 5192 5194 5197 5201 5204 5207 5211 5214 5218 5221 5224 5227 5231 5235 5238 5241 5245 5248 5251 5255 5258 5261 5264 5267 5269 5272 5274 5277 5280 5282 5284 5287 5289 5292 5294 5296 5297 5299 5300 5302 5304 5306 5308 5311 5315 5317
5182 5180 5179 5178 5177 5178 5178 5178 5178 5178 5178 5177 5177 5175 5175 5179 5183 5186 5188 5190 5193 5197 5200 5203 5207 5211 5214 5217 5220 5224 5227 5231 5234 5237 5241 5245 5248 5251 5254 5257 5260 5263 5265 5268 5271 5273 5276 5278 5281 5284 5286 5289 5291 5292 5293 5296 5297 5299 5301 5303 5306 5308 5311
5172 5171 5170 5169 5168 5168 5169 5170 5169 5169 5169 5168 5167 5167 5168 5171 5174 5178 5181 5184 5186 5189 5193 5196 5200 5204 5207 5210 5213 5216 5220 5223 5227 5231 5234 5238 5241 5244 5248 5251 5254 5256 5258 5261 5264 5267 5270 5273 5276 5278 5280 5283 5285 5287 5289 5291 5293 5294 5297 5298 5300 5303 5306
5162 5161 5161 5161 5160 5160 5160 5161 5161 5160 5160 5160 5159 5158 5160 5163 5166 5170 5174 5177 5179 5181 5185 5190 5193 5197 5200 5204 5207 5209 5212 5216 5221 5225 5228 5232 5235 5238 5241 5245 5247 5249 5252 5255 5258 5261 5264 5267 5270 5273 5275 5277 5280 5282 5284 5286 5288 5290 5292 5293 5295 5298 5300
5153 5153 5153 5153 5152 5152 5151 5152 5152 5151 5151 5151 5150 5151 5153 5156 5159 5163 5167 5170 5172 5174 5179 5183 5186 5190 5194 5197 5200 5203 5206 5210 5214 5219 5222 5225 5228 5232 5235 5238 5240 5242 5246 5249 5252 5255 5258 5261 5265 5267 5270 5272 5274 5276 5279 5281 5283 5286 5288 5289 5290 5293 5295
5144 5145 5144 5144 5145 5144 5144 5144 5144 5143 5143 5143 5143 5144 5147 5150 5153 5156 5160 5163 5165 5168 5172 5176 5180 5184 5187 5190 5193 5196 5200 5204 5208 5213 5216 5219 5223 5226 5229 5231 5233 5236 5240 5243 5246 5249 5252 5255 5258 5261 5264 5266 5268 5271 5274 5276 5278 5281 5282 5284 5286 5288 5290
5136 5137 5137 5137 5137 5137 5137 5137 5137 5135 5135 5136 5137 5139 5141 5145 5148 5150 5153 5156 5159 5162 5166 5170 5174 5177 5180 5183 5187 5191 5195 5198 5203 5207 5210 5213 5217 5220 5221 5224 5227 5230 5234 5237 5241 5243 5246 5249 5252 5255 5258 5261 5263 5266 5269 5271 5273 5275 5277 5279 5281 5283 5285
5129 5129 5130 5130 5130 5130 5130 5130 5130 5129 5129 5130 5132 5134 5136 5139 5142 5144 5146 5149 5153 5157 5161 5164 5168 5171 5174 5178 5181 5185 5189 5193 5197 5201 5204 5208 5211 5212 5214 5218 5222 5225 5228 5232 5235 5237 5240 5243 5246 5249 5252 5255 5258 5261 5263 5265 5267 5270 5272 5275 5277 5279 5281
5121 5122 5123 5123 5123 5124 5124 5124 5124 5124 5125 5126 5127 5129 5131 5134 5136 5138 5140 5144 5148 5152 5155 5159 5162 5165 5168 5172 5176 5180 5183 5188 5191 5195 5199 5202 5204 5206 5209 5213 5216 5219 5223 5226 5229 5232 5235 5238 5241 5244 5247 5250 5253 5255 5257 5259 5261 5264 5268 5270 5272 5274 5276
5115 5115 5116 5116 5117 5117 5117 5118 5119 5120 5121 5122 5123 5124 5126 5128 5130 5133 5136 5140 5143 5147 5150 5153 5157 5160 5163 5167 5171 5174 5178 5182 5186 5189 5193 5196 5198 5201 5205 5208 5211 5214 5218 5220 5223 5226 5229 5232 5235 5238 5241 5244 5247 5249 5251 5253 5255 5259 5263 5266 5268 5270 5272
5108 5109 5109 5110 5111 5111 5112 5112 5114 5115 5116 5117 5118 5119 5121 5123 5125 5128 5132 5135 5138 5142 5146 5149 5151 5154 5158 5162 5166 5170 5173 5177 5180 5184 5187 5190 5193 5197 5200 5203 5206 5209 5212 5215 5218 5221 5223 5226 5229 5232 5235 5238 5240 5242 5245 5248 5251 5254 5258 5261 5263 5266 5268
5102 5103 5104 5105 5105 5106 5106 5108 5109 5110 5111 5112 5113 5114 5116 5118 5121 5125 5128 5131 5134 5137 5141 5144 5147 5150 5154 5158 5161 5165 5168 5172 5175 5179 5182 5186 5189 5192 5196 5199 5201 5204 5207 5210 5213 5215 5218 5220 5223 5226 5228 5231 5234 5237 5240 5243 5246 5249 5252 5256 5259 5261 5263
5097 5097 5098 5099 5100 5101 5102 5103 5104 5106 5106 5107 5108 5109 5112 5115 5118 5121 5124 5127 5130 5133 5137 5140 5143 5146 5149 5153 5157 5160 5164 5167 5171 5174 5178 5182 5185 5188 5191 5194 5197 5200 5202 5205 5208 5210 5212 5215 5217 5219 5222 5225 5228 5232 5235 5238 5241 5243 5247 5250 5254 5256 5258
5091 5092 5093 5094 5095 5096 5097 5099 5100 5101 5103 5103 5104 5106 5108 5111 5114 5117 5120 5123 5126 5129 5133 5136 5139 5142 5145 5149 5152 5156 5159 5163 5166 5170 5174 5178 5181 5184 5187 5190 5192 5195 5197 5200 5203 5205 5207 5209 5212 5214 5216 5220 5223 5226 5229 5232 5235 5238 5241 5245 5248 5251 5253
5087 5087 5088 5089 5090 5091 5093 5094 5096 5098 5099 5100 5101 5103 5106 5108 5110 5113 5117 5120 5122 5125 5129 5132 5135 5138 5141 5145 5148 5152 5155 5158 5162 5165 5169 5173 5176 5179 5182 5185 5187 5189 5192 5195 5198 5200 5202 5204 5207 5209 5212 5214 5217 5220 5223 5226 5229 5233 5236 5239 5242 5245 5248
5082 5083 5084 5085 5086 5087 5089 5091 5093 5094 5096 5097 5099 5101 5103 5105 5107 5110 5113 5116 5119 5122 5125 5129 5131 5134 5137 5141 5144 5148 5151 5154 5158 5162 5166 5169 5172 5175 5178 5180 5182 5185 5187 5190 5192 5195 5198 5200 5202 5204 5207 5209 5211 5214 5217 5220 5223 5227 5231 5234 5237 5240 5243
5077 5079 5080 5080 5081 5083 5085 5087 5089 5091 5093 5094 5096 5098 5100 5102 5104 5107 5110 5112 5116 5119 5122 5125 5128 5130 5133 5137 5140 5144 5147 5151 5154 5158 5161 5165 5168 5170 5172 5175 5177 5180 5183 5185 5188 5190 5193 5195 5197 5199 5202 5204 5207 5209 5211 5214 5218 5221 5225 5229 5233 5236 5239
5073 5074 5075 5076 5077 5079 5082 5084 5086 5088 5089 5091 5093 5095 5097 5099 5101 5104 5106 5109 5112 5116 5118 5121 5124 5127 5130 5133 5137 5140 5144 5147 5150 5153 5156 5160 5163 5165 5167 5170 5173 5176 5178 5181 5183 5186 5188 5190 5191 5194 5197 5200 5202 5204 5206 5209 5212 5216 5220 5224 5228 5231 5234
5069 5070 5071 5072 5074 5076 5078 5081 5083 5084 5086 5088 5090 5092 5094 5096 5098 5101 5103 5106 5109 5112 5115 5117 5120 5124 5127 5130 5133 5137 5140 5143 5146 5149 5152 5155 5158 5160 5163 5166 5169 5172 5174 5176 5178 5181 5183 5184 5186 5189 5192 5195 5198 5200 5202 5204 5207 5211 5215 5219 5223 5226 5229
5065 5066 5067 5068 5070 5073 5075 5077 5079 5081 5083 5085 5087 5089 5091 5093 5096 5098 5101 5104 5107 5109 5111 5114 5117 5120 5124 5127 5130 5133 5136 5139 5142 5145 5148 5151 5154 5156 5159 5162 5165 5167 5169 5171 5174 5176 5178 5180 5182 5184 5187 5191 5193 5196 5198 5201 5203 5206 5209 5213 5217 5221 5225
5061 5062 5063 5065 5067 5069 5072 5074 5076 5078 5080 5082 5084 5086 5088 5091 5093 5096 5098 5101 5104 5106 5109 5112 5115 5117 5121 5123 5126 5129 5132 5135 5138 5141 5144 5147 5150 5152 5155 5157 5160 5162 5165 5167 5170 5172 5174 5176 5178 5180 5183 5186 5189 5191 5194 5197 5199 5202 5205 5209 5213 5216 5220
5058 5059 5060 5062 5064 5067 5069 5071 5073 5075 5077 5079 5081 5083 5086 5088 5091 5093 5096 5099 5101 5104 5106 5109 5112 5114 5117 5120 5123 5125 5128 5132 5135 5138 5141 5143 5146 5148 5151 5153 5155 5158 5161 5164 5166 5168 5170 5172 5174 5176 5179 5182 5185 5188 5190 5193 5195 5198 5201 5205 5208 5212 5215
5055 5056 5057 5059 5061 5064 5066 5069 5071 5073 5074 5076 5078 5080 5083 5085 5087 5090 5093 5095 5098 5101 5103 5106 5108 5111 5114 5116 5119 5122 5125 5128 5131 5134 5137 5140 5142 5144 5146 5149 5152 5154 5157 5159 5161 5164 5166 5168 5170 5172 5175 5178 5181 5184 5187 5189 5192 5195 5198 5201 5204 5207 5210